Weather History for HEAX - January, 2013

Change the Weather History Date:

Friday, January 4, 2013

  Actual Average Record
Temperature  
Mean Temperature 56 °F -  
Max Temperature 67 °F 63 °F 71 °F (2006)
Min Temperature 46 °F 47 °F 39 °F (2002)
Degree Days  
Heating Degree Days 8    
Growing Degree Days 6 (Base 50)    
Moisture  
Dew Point 52 °F    
Average Humidity 82    
Maximum Humidity 100    
Minimum Humidity 64    
Precipitation  
Precipitation 0.00 in 0.06 in - ()
Sea Level Pressure  
Sea Level Pressure 30.11 in    
Wind  
Wind Speed 3 mph ()    
Max Wind Speed 10 mph    
Max Gust Speed -    
Visibility 5.5 miles    
Events      
Averages and records for this station are not official NWS values.
T = Trace of Precipitation, MM = Missing Value Source: Averaged Metar Reports

Daily Weather History Graph

Daily Weather History Graph

Search for Another Location

Airport or City:

Trip Planner

Search our weather history database for the weather conditions in past years. The results will help you decide how hot, cold, wet, or windy it might be!

Date:

Astronomy

Jan. 04, 2013 Rise Set
Actual Time 6:59 AM EET 5:11 PM EET
Civil Twilight 6:32 AM EET 5:37 PM EET
Nautical Twilight 6:02 AM EET 6:07 PM EET
Astronomical Twilight 5:33 AM EET 6:37 PM EET
Moon 11:58 PM EET (1/4) 10:59 AM EET (1/4)
Length of Visible Light 11h 04m
Length of Day
10h 11m
Waning Gibbous, 58% of the Moon is Illuminated
Jan 4
Waning Gibbous
Jan 5
Last Quarter
Jan 11
New
Jan 19
First Quarter
Jan 27
Full

Hourly Weather History & Observations

Time (EET) Temp. Dew Point Humidity Pressure Visibility Wind Dir Wind Speed Gust Speed Precip Events Conditions
12:00 AM 53.6 °F 51.8 °F 94% 30.21 in 6.2 mi South 3.5 mph - N/A   Partly Cloudy
1:00 AM 53.6 °F 51.8 °F 94% 30.18 in 6.2 mi Calm Calm - N/A   Partly Cloudy
2:00 AM 52 °F 50 °F 91% 30.19 in 6 mi Calm Calm - -   Scattered Clouds
2:00 AM 51.8 °F 50.0 °F 94% 30.18 in 6.2 mi Calm Calm - N/A   Partly Cloudy
3:00 AM 51.8 °F 50.0 °F 94% 30.15 in 6.2 mi Calm Calm - N/A   Partly Cloudy
4:00 AM 50.0 °F 48.2 °F 94% 30.15 in 6.2 mi Calm Calm - N/A   Partly Cloudy
5:00 AM 48.2 °F 46.4 °F 93% 30.15 in 6.2 mi Calm Calm - N/A   Partly Cloudy
6:00 AM 46.4 °F 46.4 °F 100% 30.12 in 3.7 mi Calm Calm - N/A   Unknown
7:00 AM 50.0 °F 48.2 °F 94% 30.12 in 1.9 mi South 3.5 mph - N/A   Mist
8:00 AM 51 °F 49 °F 88% 30.14 in 2 mi Calm Calm - -   Mist
8:00 AM 51.8 °F 48.2 °F 88% 30.12 in 1.9 mi Calm Calm - N/A   Partly Cloudy
9:00 AM 55.4 °F 51.8 °F 88% 30.12 in 3.7 mi SW 2.3 mph - N/A   Partly Cloudy
10:00 AM 59.0 °F 55.4 °F 88% 30.15 in 6.2 mi West 6.9 mph - N/A   Scattered Clouds
11:00 AM 60.8 °F 53.6 °F 77% 30.12 in 6.2 mi SW 8.1 mph - N/A   Scattered Clouds
12:00 PM 60.8 °F 55.4 °F 82% 30.12 in 6.2 mi SW 9.2 mph - N/A   Scattered Clouds
1:00 PM 64.4 °F 57.2 °F 77% 30.09 in 6.2 mi WSW 5.8 mph - N/A   Scattered Clouds
2:00 PM 67 °F 58 °F 64% 30.06 in 6 mi NW 5.8 mph - -   Mostly Cloudy
2:00 PM 66.2 °F 57.2 °F 73% 30.06 in 6.2 mi NW 5.8 mph - N/A   Scattered Clouds
3:00 PM 64.4 °F 55.4 °F 73% 30.06 in 6.2 mi WNW 8.1 mph - N/A   Scattered Clouds
4:00 PM 62.6 °F 53.6 °F 72% 30.06 in 6.2 mi NNW 10.4 mph - N/A   Scattered Clouds
5:00 PM 62.6 °F 53.6 °F 72% 30.06 in 6.2 mi NW 8.1 mph - N/A   Scattered Clouds
6:00 PM 60.8 °F 53.6 °F 77% 30.09 in 6.2 mi NNW 8.1 mph - N/A   Scattered Clouds
7:00 PM 60.8 °F 50.0 °F 68% 30.09 in 6.2 mi NNW 10.4 mph - N/A   Scattered Clouds
8:00 PM 60 °F 53 °F 70% 30.08 in 6 mi NNW 6.9 mph - -   Partly Cloudy
8:00 PM 60.8 °F 53.6 °F 77% 30.06 in 6.2 mi NNW 6.9 mph - N/A   Scattered Clouds
9:00 PM 60.8 °F 51.8 °F 72% 30.06 in 6.2 mi NNW 5.8 mph - N/A   Scattered Clouds
10:00 PM 59.0 °F 53.6 °F 82% 30.06 in 6.2 mi NNW 5.8 mph - N/A   Scattered Clouds
11:00 PM 59.0 °F 50.0 °F 72% 30.06 in 6.2 mi NNW 3.5 mph - N/A   Scattered Clouds